| time (UTC) | temp F | wind direction | speed MPH | gust MPH | rain 1hr in | rain 24hr in | rain mn in | humidity % | barometer mb |
| 20260905151958 | 74 | 347 | 5.0 | 11.0 | 0.00 | 0.00 | 0.00 | 69 | 1012.8 |
| 20260905151501 | 74 | 319 | 5.0 | 10.0 | 0.00 | 0.00 | 0.00 | 71 | 1012.6 |
| 20260905150959 | 74 | 3 | 5.0 | 10.0 | 0.00 | 0.00 | 0.00 | 70 | 1012.6 |
| 20260905150459 | 73 | 348 | 4.0 | 10.0 | 0.00 | 0.00 | 0.00 | 72 | 1012.6 |
| 20260905150000 | 73 | 7 | 6.0 | 12.0 | 0.00 | 0.00 | 0.00 | 72 | 1012.6 |
| 20260905145459 | 72 | 7 | 6.0 | 12.0 | 0.00 | 0.00 | 0.00 | 74 | 1012.6 |
| 20260905144959 | 73 | 45 | 6.0 | 12.0 | 0.00 | 0.00 | 0.00 | 71 | 1012.6 |
| 20260905144459 | 73 | 1 | 5.0 | 12.0 | 0.00 | 0.00 | 0.00 | 72 | 1012.5 |
| 20260905143959 | 72 | 342 | 5.0 | 12.0 | 0.00 | 0.00 | 0.00 | 72 | 1012.5 |
| 20260905143459 | 72 | 349 | 5.0 | 12.0 | 0.00 | 0.00 | 0.00 | 72 | 1012.5 |
| 20260905142959 | 72 | 339 | 5.0 | 11.0 | 0.00 | 0.00 | 0.00 | 75 | 1012.6 |
| 20260905142459 | 72 | 28 | 6.0 | 11.0 | 0.00 | 0.00 | 0.00 | 74 | 1012.6 |
| 20260905141500 | 71 | 28 | 6.0 | 11.0 | 0.00 | 0.00 | 0.00 | 74 | 1012.7 |
| 20260905140959 | 72 | 8 | 4.0 | 8.0 | 0.00 | 0.00 | 0.00 | 73 | 1012.7 |
| 20260905140458 | 72 | 19 | 5.0 | 10.0 | 0.00 | 0.00 | 0.00 | 76 | 1012.7 |
| 20260905140000 | 72 | 331 | 5.0 | 10.0 | 0.00 | 0.00 | 0.00 | 73 | 1012.7 |
| 20260905135459 | 72 | 317 | 3.0 | 8.0 | 0.00 | 0.00 | 0.00 | 76 | 1012.8 |
| 20260905134958 | 72 | 334 | 3.0 | 7.0 | 0.00 | 0.00 | 0.00 | 75 | 1012.7 |
| 20260905133959 | 72 | 337 | 2.0 | 7.0 | 0.00 | 0.00 | 0.00 | 74 | 1012.7 |
| 20260905133459 | 71 | 336 | 3.0 | 8.0 | 0.00 | 0.00 | 0.00 | 77 | 1012.8 |
| 20260905132959 | 71 | 359 | 4.0 | 8.0 | 0.00 | 0.00 | 0.00 | 75 | 1012.7 |
| 20260905132459 | 71 | 356 | 4.0 | 8.0 | 0.00 | 0.00 | 0.00 | 76 | 1012.7 |
| 20260905131959 | 71 | 12 | 4.0 | 6.0 | 0.00 | 0.00 | 0.00 | 77 | 1012.6 |
| 20260905131500 | 71 | 359 | 4.0 | 9.0 | 0.00 | 0.00 | 0.00 | 77 | 1012.5 |
| 20260905130959 | 71 | 334 | 3.0 | 9.0 | 0.00 | 0.00 | 0.00 | 76 | 1012.4 |
| 20260905130459 | 70 | 348 | 2.0 | 7.0 | 0.00 | 0.00 | 0.00 | 78 | 1012.5 |
| 20260905125959 | 70 | 31 | 3.0 | 8.0 | 0.00 | 0.00 | 0.00 | 80 | 1012.4 |
| 20260905125459 | 70 | 32 | 5.0 | 10.0 | 0.00 | 0.00 | 0.00 | 79 | 1012.4 |
| 20260905124959 | 70 | 341 | 6.0 | 10.0 | 0.00 | 0.00 | 0.00 | 79 | 1012.5 |
| 20260905124459 | 70 | 358 | 5.0 | 11.0 | 0.00 | 0.00 | 0.00 | 79 | 1012.6 |
| 20260905123959 | 70 | 10 | 4.0 | 11.0 | 0.00 | 0.00 | 0.00 | 79 | 1012.6 |
| 20260905123000 | 69 | 32 | 4.0 | 6.0 | 0.00 | 0.00 | 0.00 | 80 | 1012.6 |
| 20260905121959 | 69 | 33 | 2.0 | 6.0 | 0.00 | 0.00 | 0.00 | 81 | 1012.7 |
| 20260905121459 | 69 | 9 | 2.0 | 4.0 | 0.00 | 0.00 | 0.00 | 83 | 1012.7 |
| 20260905120958 | 69 | 8 | 2.0 | 4.0 | 0.00 | 0.00 | 0.00 | 82 | 1012.6 |
| 20260905115959 | 0 | 0.0 | 0.0 | 0.00 | 0.00 | 0.00 | 1012.6 | ||
| 20260905115458 | 0 | 0.0 | 0.0 | 0.00 | 0.00 | 0.00 | 1012.5 | ||
| 20260905114459 | 0 | 0.0 | 0.0 | 0.00 | 0.00 | 0.00 | 1012.6 | ||
| 20260905113458 | 0 | 0.0 | 0.0 | 0.00 | 0.00 | 0.00 | 1012.6 | ||
| 20260905112959 | 0 | 0.0 | 0.0 | 0.00 | 0.00 | 0.00 | 1012.6 | ||
| 20260905112458 | 0 | 0.0 | 0.0 | 0.00 | 0.00 | 0.00 | 1012.5 | ||
| 20260905111958 | 0 | 0.0 | 0.0 | 0.00 | 0.00 | 0.00 | 1012.5 | ||
| 20260905110958 | 0 | 0.0 | 0.0 | 0.00 | 0.00 | 0.00 | 1012.3 | ||
| 20260905110459 | 0 | 0.0 | 0.0 | 0.00 | 0.00 | 0.00 | 1012.2 | ||
| 20260905105959 | 0 | 0.0 | 0.0 | 0.00 | 0.00 | 0.00 | 1012.1 | ||
| 20260905105459 | 0 | 0.0 | 0.0 | 0.00 | 0.00 | 0.00 | 1012.2 | ||
| 20260905104958 | 0 | 0.0 | 0.0 | 0.00 | 0.00 | 0.00 | 1012.1 | ||
| 20260905104459 | 0 | 0.0 | 0.0 | 0.00 | 0.00 | 0.00 | 1012.0 | ||
| 20260905103958 | 0 | 0.0 | 0.0 | 0.00 | 0.00 | 0.00 | 1011.8 | ||
| 20260905103500 | 0 | 0.0 | 0.0 | 0.00 | 0.00 | 0.00 | 1011.7 | ||
| 20260905102459 | 0 | 0.0 | 0.0 | 0.00 | 0.00 | 0.00 | 1011.7 | ||
| 20260905101958 | 0 | 0.0 | 0.0 | 0.00 | 0.00 | 0.00 | 1011.7 | ||
| 20260905101459 | 0 | 0.0 | 0.0 | 0.00 | 0.00 | 0.00 | 1011.6 | ||
| 20260905100958 | 0 | 0.0 | 0.0 | 0.00 | 0.00 | 0.00 | 1011.6 | ||
| 20260905100458 | 68 | 50 | 0.0 | 0.0 | 0.00 | 0.00 | 0.00 | 81 | 1011.7 |
| 20260905095959 | 68 | 50 | 0.0 | 0.0 | 0.00 | 0.00 | 0.00 | 81 | 1011.6 |
| 20260905094959 | 68 | 50 | 0.0 | 0.0 | 0.00 | 0.00 | 0.00 | 81 | 1011.6 |
| 20260905094459 | 68 | 50 | 1.0 | 2.0 | 0.00 | 0.00 | 0.00 | 81 | 1011.5 |
| 20260905093959 | 69 | 50 | 1.0 | 3.0 | 0.00 | 0.00 | 0.00 | 80 | 1011.5 |
| 20260905092458 | 69 | 50 | 2.0 | 5.0 | 0.00 | 0.00 | 0.00 | 79 | 1011.4 |
| 20260905091959 | 68 | 50 | 2.0 | 5.0 | 0.00 | 0.00 | 0.00 | 79 | 1011.3 |
| 20260905091500 | 68 | 50 | 2.0 | 4.0 | 0.00 | 0.00 | 0.00 | 81 | 1011.3 |
| 20260905090458 | 68 | 50 | 3.0 | 6.0 | 0.00 | 0.00 | 0.00 | 80 | 1011.3 |
| 20260905090000 | 68 | 50 | 3.0 | 6.0 | 0.00 | 0.00 | 0.00 | 80 | 1011.2 |
| 20260905085458 | 68 | 50 | 2.0 | 5.0 | 0.00 | 0.00 | 0.00 | 81 | 1011.4 |
| 20260905084958 | 69 | 50 | 2.0 | 4.0 | 0.00 | 0.00 | 0.00 | 81 | 1011.4 |
| 20260905084500 | 69 | 50 | 3.0 | 6.0 | 0.00 | 0.00 | 0.00 | 80 | 1011.3 |
| 20260905083958 | 69 | 50 | 3.0 | 6.0 | 0.00 | 0.00 | 0.00 | 79 | 1011.3 |
| 20260905082959 | 69 | 50 | 3.0 | 6.0 | 0.00 | 0.00 | 0.00 | 80 | 1011.4 |
| 20260905082458 | 69 | 50 | 3.0 | 6.0 | 0.00 | 0.00 | 0.00 | 80 | 1011.3 |
| 20260905081958 | 69 | 50 | 3.0 | 6.0 | 0.00 | 0.00 | 0.00 | 80 | 1011.2 |
| 20260905081459 | 69 | 50 | 3.0 | 11.0 | 0.00 | 0.00 | 0.00 | 80 | 1011.3 |
| 20260905080959 | 69 | 50 | 3.0 | 11.0 | 0.00 | 0.00 | 0.00 | 80 | 1011.4 |
| 20260905080459 | 69 | 50 | 2.0 | 5.0 | 0.00 | 0.00 | 0.00 | 81 | 1011.5 |
| 20260905075959 | 69 | 50 | 2.0 | 5.0 | 0.00 | 0.00 | 0.00 | 81 | 1011.5 |
| 20260905074959 | 69 | 50 | 2.0 | 6.0 | 0.00 | 0.00 | 0.00 | 82 | 1011.4 |
| 20260905074459 | 69 | 50 | 2.0 | 5.0 | 0.00 | 0.00 | 0.00 | 82 | 1011.5 |
| 20260905072959 | 69 | 50 | 3.0 | 5.0 | 0.00 | 0.00 | 0.00 | 82 | 1011.4 |
| 20260905072458 | 69 | 50 | 2.0 | 6.0 | 0.00 | 0.00 | 0.00 | 82 | 1011.5 |
| 20260905071959 | 69 | 50 | 2.0 | 6.0 | 0.00 | 0.00 | 0.00 | 83 | 1011.5 |
| 20260905071459 | 69 | 50 | 2.0 | 5.0 | 0.00 | 0.00 | 0.00 | 83 | 1011.5 |
| 20260905070958 | 69 | 50 | 2.0 | 5.0 | 0.00 | 0.00 | 0.00 | 83 | 1011.6 |
| 20260905070459 | 69 | 50 | 2.0 | 8.0 | 0.00 | 0.00 | 0.00 | 83 | 1011.6 |
| 20260905065458 | 70 | 50 | 2.0 | 6.0 | 0.00 | 0.00 | 0.00 | 84 | 1011.6 |
| 20260905064958 | 70 | 50 | 1.0 | 4.0 | 0.00 | 0.00 | 0.00 | 84 | 1011.6 |
| 20260905064459 | 70 | 50 | 1.0 | 3.0 | 0.00 | 0.00 | 0.00 | 83 | 1011.7 |
| 20260905063959 | 70 | 50 | 1.0 | 3.0 | 0.00 | 0.00 | 0.00 | 83 | 1011.8 |
| 20260905063458 | 70 | 50 | 0.0 | 3.0 | 0.00 | 0.00 | 0.00 | 84 | 1011.8 |
| 20260905062959 | 70 | 50 | 1.0 | 2.0 | 0.00 | 0.00 | 0.00 | 83 | 1011.7 |
| 20260905062458 | 70 | 50 | 1.0 | 3.0 | 0.00 | 0.00 | 0.00 | 83 | 1011.7 |
| 20260905061958 | 70 | 50 | 2.0 | 5.0 | 0.00 | 0.00 | 0.00 | 83 | 1011.7 |
| 20260905061459 | 70 | 50 | 2.0 | 5.0 | 0.00 | 0.00 | 0.00 | 84 | 1011.8 |
| 20260905060959 | 70 | 50 | 1.0 | 4.0 | 0.00 | 0.00 | 0.00 | 85 | 1011.9 |
| 20260905060458 | 69 | 50 | 2.0 | 4.0 | 0.00 | 0.00 | 0.00 | 85 | 1011.8 |
| 20260905055459 | 69 | 50 | 0.0 | 4.0 | 0.00 | 0.00 | 0.00 | 87 | 1011.9 |
| 20260905054459 | 69 | 50 | 0.0 | 0.0 | 0.00 | 0.00 | 0.00 | 88 | 1012.0 |
| 20260905053958 | 69 | 50 | 0.0 | 0.0 | 0.00 | 0.00 | 0.00 | 89 | 1012.1 |
| 20260905053458 | 69 | 50 | 0.0 | 0.0 | 0.00 | 0.00 | 0.00 | 90 | 1012.1 |
| 20260905052959 | 69 | 50 | 0.0 | 0.0 | 0.00 | 0.00 | 0.00 | 90 | 1012.2 |
| 20260905052458 | 69 | 50 | 0.0 | 0.0 | 0.00 | 0.00 | 0.00 | 90 | 1012.1 |
| 20260905051958 | 69 | 50 | 0.0 | 0.0 | 0.00 | 0.00 | 0.00 | 89 | 1012.2 |
| 20260905051459 | 69 | 50 | 0.0 | 0.0 | 0.00 | 0.00 | 0.00 | 89 | 1012.2 |
| 20260905050958 | 69 | 50 | 0.0 | 0.0 | 0.00 | 0.00 | 0.00 | 89 | 1012.2 |
| 20260905050458 | 69 | 50 | 0.0 | 0.0 | 0.00 | 0.00 | 0.00 | 89 | 1012.3 |
| 20260905045459 | 69 | 50 | 0.0 | 0.0 | 0.00 | 0.16 | 0.00 | 90 | 1012.4 |
| 20260905044958 | 69 | 50 | 0.0 | 0.0 | 0.00 | 0.16 | 0.00 | 90 | 1012.4 |
| 20260905044502 | 69 | 50 | 0.0 | 2.0 | 0.00 | 0.16 | 0.00 | 90 | 1012.4 |
| 20260905043958 | 69 | 50 | 0.0 | 2.0 | 0.00 | 0.16 | 0.00 | 92 | 1012.5 |
| 20260905043458 | 69 | 50 | 0.0 | 2.0 | 0.00 | 0.16 | 0.00 | 92 | 1012.5 |
| 20260905042959 | 68 | 50 | 0.0 | 0.0 | 0.00 | 0.16 | 0.00 | 93 | 1012.4 |
| 20260905042458 | 68 | 50 | 0.0 | 0.0 | 0.00 | 0.16 | 0.00 | 94 | 1012.4 |
| 20260905041958 | 69 | 50 | 0.0 | 0.0 | 0.00 | 0.16 | 0.00 | 94 | 1012.4 |
| 20260905040958 | 69 | 50 | 0.0 | 0.0 | 0.00 | 0.16 | 0.00 | 95 | 1012.4 |
| 20260905040459 | 69 | 50 | 0.0 | 0.0 | 0.00 | 0.16 | 0.00 | 95 | 1012.4 |
| 20260905035959 | 69 | 50 | 0.0 | 0.0 | 0.00 | 0.16 | 0.16 | 95 | 1012.4 |
| 20260905035458 | 69 | 50 | 0.0 | 0.0 | 0.00 | 0.16 | 0.16 | 95 | 1012.2 |
| 20260905034958 | 69 | 50 | 0.0 | 0.0 | 0.00 | 0.16 | 0.16 | 95 | 1012.2 |
| 20260905034459 | 70 | 50 | 0.0 | 0.0 | 0.00 | 0.16 | 0.16 | 96 | 1012.3 |
| 20260905033458 | 70 | 50 | 0.0 | 0.0 | 0.00 | 0.16 | 0.16 | 95 | 1012.4 |
| 20260905032959 | 70 | 50 | 0.0 | 0.0 | 0.00 | 0.16 | 0.16 | 95 | 1012.5 |
| 20260905032000 | 70 | 50 | 0.0 | 0.0 | 0.00 | 0.16 | 0.16 | 95 | 1012.4 |
| 20260905031459 | 70 | 50 | 0.0 | 0.0 | 0.00 | 0.16 | 0.16 | 95 | 1012.4 |
| 20260905030958 | 70 | 50 | 0.0 | 0.0 | 0.00 | 0.16 | 0.16 | 95 | 1012.3 |
| 20260905030458 | 70 | 50 | 0.0 | 0.0 | 0.00 | 0.16 | 0.16 | 95 | 1012.3 |
| 20260905025959 | 70 | 50 | 0.0 | 0.0 | 0.00 | 0.16 | 0.16 | 95 | 1012.3 |
| 20260905025458 | 70 | 50 | 0.0 | 0.0 | 0.00 | 0.16 | 0.16 | 95 | 1012.4 |
| 20260905024958 | 70 | 50 | 0.0 | 0.0 | 0.00 | 0.16 | 0.16 | 95 | 1012.4 |
| 20260905024459 | 70 | 50 | 0.0 | 0.0 | 0.00 | 0.16 | 0.16 | 95 | 1012.4 |
| 20260905023459 | 70 | 50 | 0.0 | 0.0 | 0.00 | 0.16 | 0.16 | 95 | 1012.3 |
| 20260905022959 | 70 | 50 | 0.0 | 0.0 | 0.00 | 0.16 | 0.16 | 95 | 1012.3 |
| 20260905020958 | 70 | 50 | 0.0 | 0.0 | 0.00 | 0.16 | 0.16 | 95 | 1012.3 |
| 20260905015458 | 71 | 50 | 0.0 | 0.0 | 0.00 | 0.16 | 0.16 | 94 | 1012.2 |
| 20260905014958 | 71 | 50 | 0.0 | 0.0 | 0.00 | 0.16 | 0.16 | 94 | 1012.2 |
| 20260905014459 | 71 | 50 | 0.0 | 0.0 | 0.00 | 0.16 | 0.16 | 94 | 1012.3 |
| 20260905013958 | 71 | 50 | 0.0 | 0.0 | 0.00 | 0.16 | 0.16 | 94 | 1012.2 |
| 20260905013458 | 71 | 50 | 0.0 | 0.0 | 0.00 | 0.16 | 0.16 | 94 | 1012.3 |
| 20260905011958 | 71 | 50 | 0.0 | 0.0 | 0.00 | 0.16 | 0.16 | 93 | 1012.3 |
| 20260905011459 | 71 | 50 | 0.0 | 0.0 | 0.00 | 0.16 | 0.16 | 93 | 1012.2 |
| 20260905010958 | 71 | 50 | 0.0 | 0.0 | 0.00 | 0.16 | 0.16 | 93 | 1012.3 |
| 20260905010458 | 71 | 50 | 0.0 | 0.0 | 0.00 | 0.16 | 0.16 | 93 | 1012.3 |
| 20260905005959 | 71 | 50 | 0.0 | 1.0 | 0.00 | 0.16 | 0.16 | 92 | 1012.4 |
| 20260905005457 | 72 | 50 | 0.0 | 1.0 | 0.00 | 0.16 | 0.16 | 92 | 1012.3 |
| 20260905004958 | 72 | 50 | 0.0 | 0.0 | 0.00 | 0.16 | 0.16 | 92 | 1012.2 |
| 20260905004459 | 72 | 50 | 0.0 | 1.0 | 0.00 | 0.16 | 0.16 | 91 | 1012.2 |
| 20260905003958 | 72 | 50 | 0.0 | 1.0 | 0.00 | 0.16 | 0.16 | 91 | 1012.2 |
| 20260905003458 | 72 | 50 | 0.0 | 0.0 | 0.00 | 0.16 | 0.16 | 91 | 1012.2 |
| 20260905002959 | 72 | 50 | 0.0 | 0.0 | 0.00 | 0.16 | 0.16 | 91 | 1012.2 |
| 20260905002458 | 72 | 50 | 0.0 | 0.0 | 0.00 | 0.16 | 0.16 | 90 | 1012.1 |
| 20260905001958 | 72 | 50 | 0.0 | 1.0 | 0.00 | 0.16 | 0.16 | 90 | 1012.1 |
| 20260905000958 | 72 | 50 | 0.0 | 1.0 | 0.00 | 0.16 | 0.16 | 90 | 1011.9 |
| 20260905000458 | 72 | 50 | 0.0 | 1.0 | 0.00 | 0.16 | 0.16 | 90 | 1011.9 |
| 20260904235959 | 73 | 50 | 0.0 | 1.0 | 0.00 | 0.16 | 0.16 | 90 | 1011.8 |
| 20260904235458 | 73 | 50 | 0.0 | 0.0 | 0.00 | 0.16 | 0.16 | 89 | 1011.7 |
| 20260904234958 | 73 | 50 | 0.0 | 0.0 | 0.00 | 0.16 | 0.16 | 89 | 1011.7 |
| 20260904234459 | 73 | 50 | 0.0 | 0.0 | 0.00 | 0.16 | 0.16 | 89 | 1011.8 |
| 20260904233958 | 73 | 50 | 0.0 | 0.0 | 0.00 | 0.16 | 0.16 | 88 | 1011.8 |
| 20260904233458 | 74 | 50 | 0.0 | 0.0 | 0.00 | 0.16 | 0.16 | 88 | 1011.8 |
| 20260904232458 | 75 | 50 | 0.0 | 0.0 | 0.00 | 0.16 | 0.16 | 87 | 1011.7 |
| 20260904231459 | 76 | 50 | 0.0 | 0.0 | 0.00 | 0.16 | 0.16 | 85 | 1011.7 |
| 20260904230958 | 76 | 308 | 0.0 | 0.0 | 0.00 | 0.16 | 0.16 | 84 | 1011.6 |
| 20260904225959 | 77 | 308 | 0.0 | 0.0 | 0.00 | 0.16 | 0.16 | 83 | 1011.7 |
| 20260904225458 | 78 | 308 | 0.0 | 0.0 | 0.00 | 0.16 | 0.16 | 80 | 1011.6 |
| 20260904224459 | 78 | 308 | 0.0 | 0.0 | 0.00 | 0.16 | 0.16 | 79 | 1011.6 |
| 20260904223958 | 78 | 308 | 0.0 | 0.0 | 0.00 | 0.16 | 0.16 | 79 | 1011.7 |
| 20260904223458 | 78 | 308 | 0.0 | 0.0 | 0.00 | 0.16 | 0.16 | 79 | 1011.9 |
| 20260904222959 | 78 | 308 | 0.0 | 0.0 | 0.00 | 0.16 | 0.16 | 80 | 1011.9 |
| 20260904222458 | 79 | 308 | 0.0 | 0.0 | 0.00 | 0.16 | 0.16 | 79 | 1011.9 |
| 20260904221958 | 79 | 308 | 0.0 | 2.0 | 0.00 | 0.16 | 0.16 | 78 | 1012.0 |
| 20260904221459 | 79 | 308 | 1.0 | 2.0 | 0.00 | 0.16 | 0.16 | 79 | 1012.0 |
| 20260904220958 | 79 | 308 | 1.0 | 3.0 | 0.00 | 0.16 | 0.16 | 78 | 1012.0 |
| 20260904220458 | 79 | 308 | 1.0 | 4.0 | 0.00 | 0.16 | 0.16 | 78 | 1012.1 |
| 20260904215959 | 79 | 307 | 1.0 | 4.0 | 0.00 | 0.16 | 0.16 | 77 | 1012.1 |
| 20260904215458 | 79 | 348 | 1.0 | 4.0 | 0.00 | 0.16 | 0.16 | 77 | 1012.2 |
| 20260904214958 | 79 | 298 | 1.0 | 3.0 | 0.00 | 0.16 | 0.16 | 78 | 1012.2 |
| 20260904214459 | 79 | 300 | 2.0 | 3.0 | 0.00 | 0.16 | 0.16 | 78 | 1012.3 |
| 20260904213958 | 79 | 298 | 2.0 | 4.0 | 0.00 | 0.16 | 0.16 | 77 | 1012.3 |
| 20260904212959 | 80 | 307 | 3.0 | 5.0 | 0.00 | 0.16 | 0.16 | 76 | 1012.3 |
| 20260904212458 | 80 | 296 | 3.0 | 5.0 | 0.00 | 0.16 | 0.16 | 75 | 1012.1 |
| 20260904211958 | 81 | 300 | 3.0 | 5.0 | 0.00 | 0.16 | 0.16 | 75 | 1012.1 |
| 20260904211459 | 81 | 309 | 3.0 | 6.0 | 0.00 | 0.16 | 0.16 | 74 | 1012.0 |
| 20260904210958 | 81 | 334 | 3.0 | 8.0 | 0.00 | 0.16 | 0.16 | 74 | 1012.0 |
| 20260904210458 | 81 | 324 | 2.0 | 8.0 | 0.00 | 0.16 | 0.16 | 74 | 1011.9 |
| 20260904205959 | 81 | 330 | 2.0 | 6.0 | 0.00 | 0.16 | 0.16 | 74 | 1011.8 |
| 20260904205458 | 81 | 355 | 3.0 | 6.0 | 0.00 | 0.16 | 0.16 | 73 | 1011.8 |
| 20260904204958 | 81 | 13 | 2.0 | 5.0 | 0.00 | 0.16 | 0.16 | 74 | 1011.7 |
| 20260904204459 | 81 | 346 | 2.0 | 4.0 | 0.00 | 0.16 | 0.16 | 74 | 1011.8 |
| 20260904203958 | 81 | 358 | 2.0 | 8.0 | 0.00 | 0.16 | 0.16 | 74 | 1011.8 |
| 20260904203000 | 82 | 332 | 4.0 | 8.0 | 0.00 | 0.16 | 0.16 | 72 | 1011.8 |
| 20260904202458 | 82 | 320 | 3.0 | 8.0 | 0.00 | 0.16 | 0.16 | 71 | 1011.9 |
| 20260904201958 | 83 | 314 | 4.0 | 11.0 | 0.00 | 0.16 | 0.16 | 73 | 1012.0 |
| 20260904201459 | 82 | 331 | 4.0 | 11.0 | 0.00 | 0.16 | 0.16 | 72 | 1011.9 |
| 20260904200958 | 82 | 307 | 4.0 | 11.0 | 0.00 | 0.16 | 0.16 | 71 | 1011.9 |
| 20260904195959 | 82 | 327 | 4.0 | 9.0 | 0.00 | 0.16 | 0.16 | 72 | 1012.0 |
| 20260904195458 | 82 | 328 | 3.0 | 7.0 | 0.00 | 0.16 | 0.16 | 72 | 1012.1 |
| 20260904194459 | 81 | 291 | 4.0 | 8.0 | 0.00 | 0.16 | 0.16 | 74 | 1012.4 |
| 20260904193958 | 81 | 326 | 3.0 | 8.0 | 0.00 | 0.16 | 0.16 | 74 | 1012.5 |
| 20260904193458 | 81 | 300 | 3.0 | 7.0 | 0.00 | 0.16 | 0.16 | 75 | 1012.5 |
| 20260904192959 | 81 | 340 | 3.0 | 7.0 | 0.00 | 0.16 | 0.16 | 73 | 1012.6 |
| 20260904192458 | 80 | 291 | 4.0 | 9.0 | 0.00 | 0.16 | 0.16 | 74 | 1012.7 |
| 20260904191958 | 80 | 321 | 4.0 | 9.0 | 0.00 | 0.16 | 0.16 | 74 | 1012.6 |
| 20260904191459 | 80 | 290 | 4.0 | 9.0 | 0.00 | 0.16 | 0.16 | 73 | 1012.7 |
| 20260904190958 | 81 | 309 | 5.0 | 9.0 | 0.00 | 0.16 | 0.16 | 73 | 1012.7 |
| 20260904190458 | 82 | 306 | 5.0 | 9.0 | 0.00 | 0.16 | 0.16 | 72 | 1012.8 |
| 20260904185959 | 82 | 332 | 6.0 | 14.0 | 0.00 | 0.16 | 0.16 | 71 | 1012.8 |
| 20260904185458 | 82 | 338 | 7.0 | 14.0 | 0.00 | 0.16 | 0.16 | 71 | 1012.8 |
| 20260904184958 | 82 | 261 | 6.0 | 11.0 | 0.00 | 0.16 | 0.16 | 74 | 1012.8 |
| 20260904184459 | 82 | 277 | 5.0 | 11.0 | 0.00 | 0.16 | 0.16 | 72 | 1012.9 |
| 20260904183958 | 82 | 313 | 4.0 | 11.0 | 0.00 | 0.16 | 0.16 | 72 | 1013.0 |
| 20260904183458 | 82 | 289 | 5.0 | 11.0 | 0.00 | 0.16 | 0.16 | 71 | 1013.0 |
| 20260904182959 | 82 | 285 | 5.0 | 9.0 | 0.00 | 0.16 | 0.16 | 74 | 1013.1 |
| 20260904182458 | 82 | 347 | 5.0 | 9.0 | 0.00 | 0.16 | 0.16 | 72 | 1013.1 |
| 20260904181958 | 82 | 296 | 5.0 | 8.0 | 0.00 | 0.16 | 0.16 | 73 | 1013.1 |
| 20260904181459 | 82 | 302 | 4.0 | 9.0 | 0.00 | 0.16 | 0.16 | 74 | 1013.1 |
| 20260904180958 | 81 | 260 | 3.0 | 7.0 | 0.00 | 0.16 | 0.16 | 76 | 1013.2 |
| 20260904180458 | 81 | 259 | 3.0 | 6.0 | 0.00 | 0.16 | 0.16 | 78 | 1013.2 |
| 20260904175959 | 80 | 302 | 4.0 | 9.0 | 0.00 | 0.16 | 0.16 | 75 | 1013.2 |
| 20260904175458 | 80 | 298 | 5.0 | 10.0 | 0.00 | 0.16 | 0.16 | 75 | 1013.2 |
| 20260904173958 | 80 | 282 | 4.0 | 9.0 | 0.00 | 0.16 | 0.16 | 75 | 1013.3 |
| 20260904173000 | 80 | 327 | 4.0 | 7.0 | 0.00 | 0.16 | 0.16 | 75 | 1013.3 |
| 20260904172458 | 80 | 290 | 3.0 | 8.0 | 0.00 | 0.16 | 0.16 | 75 | 1013.3 |
| 20260904171958 | 80 | 290 | 2.0 | 8.0 | 0.00 | 0.16 | 0.16 | 75 | 1013.3 |
| 20260904171459 | 80 | 317 | 2.0 | 4.0 | 0.00 | 0.16 | 0.16 | 75 | 1013.3 |
| 20260904170958 | 80 | 304 | 2.0 | 4.0 | 0.00 | 0.16 | 0.16 | 77 | 1013.2 |
| 20260904170458 | 80 | 328 | 3.0 | 5.0 | 0.00 | 0.16 | 0.16 | 77 | 1013.2 |
| 20260904165959 | 80 | 321 | 4.0 | 7.0 | 0.00 | 0.16 | 0.16 | 76 | 1013.3 |
| 20260904165458 | 80 | 331 | 3.0 | 7.0 | 0.00 | 0.16 | 0.16 | 76 | 1013.3 |
| 20260904164958 | 80 | 8 | 2.0 | 5.0 | 0.00 | 0.16 | 0.16 | 77 | 1013.2 |
| 20260904164459 | 79 | 317 | 3.0 | 5.0 | 0.00 | 0.16 | 0.16 | 77 | 1013.4 |
| 20260904163958 | 79 | 290 | 3.0 | 5.0 | 0.00 | 0.16 | 0.16 | 75 | 1013.4 |
| 20260904163458 | 79 | 289 | 3.0 | 5.0 | 0.00 | 0.16 | 0.16 | 76 | 1013.5 |
| 20260904162959 | 79 | 279 | 3.0 | 8.0 | 0.00 | 0.16 | 0.16 | 75 | 1013.6 |
| 20260904162458 | 79 | 333 | 3.0 | 8.0 | 0.00 | 0.16 | 0.16 | 76 | 1013.6 |
| 20260904161958 | 79 | 308 | 4.0 | 10.0 | 0.00 | 0.16 | 0.16 | 76 | 1013.6 |
| 20260904161459 | 79 | 327 | 5.0 | 10.0 | 0.00 | 0.16 | 0.16 | 75 | 1013.6 |
| 20260904155458 | 79 | 342 | 4.0 | 9.0 | 0.00 | 0.16 | 0.16 | 75 | 1013.5 |
| 20260904154958 | 79 | 19 | 4.0 | 9.0 | 0.00 | 0.16 | 0.16 | 75 | 1013.6 |
| 20260904154459 | 79 | 108 | 4.0 | 10.0 | 0.00 | 0.16 | 0.16 | 76 | 1013.5 |
| 20260904153958 | 78 | 339 | 5.0 | 10.0 | 0.00 | 0.16 | 0.16 | 77 | 1013.5 |
| 20260904152959 | 78 | 254 | 3.0 | 9.0 | 0.00 | 0.16 | 0.16 | 79 | 1013.6 |
| 20260904152458 | 78 | 273 | 5.0 | 13.0 | 0.00 | 0.16 | 0.16 | 79 | 1013.7 |